Yarmouth, MA

12:20 PM EDT on September 03, 2015 (GMT -0400)
WA1FSC - Yarmouth Port | | Change Station
CLOSE
Current Station
Personal Weather Station
Location: Yarmouth, MA
Elevation: 33 ft
Nearby Weather Stations

Elev 33 ft 41.71 °N, 70.23 °W | Updated 5 minutes ago

Clear
Clear
82.2 °F
Feels Like 86 °F
N
1.1
Wind Variable Wind from NE

Today
High -- | Low -- °F
--% Chance of Precip.
Yesterday
High -- | Low -- °F
Precip. -- in
6:08 AM 7:11 PM
Waning Gibbous, 69% visible
Pressure 29.86 in
Visibility 9.0 miles
Clouds Scattered Clouds 2300 ft
Heat Index 86 °F
Dew Point 70 °F
Humidity 67%
Rainfall 0.00 in
Snow Depth Not available.
UV 7 out of 12
Pollen 8.60 out of 12
Air Quality Not available.
Flu Activity Not available.
METAR KHYA 031556Z 05005KT 9SM SCT023 27/21 A2985 RMK AO2 SLP109 T02720206
Pressure 29.86 in
Visibility 9.0 miles
Clouds Scattered Clouds 2300 ft
Heat Index 86 °F
Dew Point 70 °F
Humidity 67%
Rainfall 0.00 in
Snow Depth Not available.
UV 7 out of 12
Pollen 8.60 out of 12
Air Quality Not available.
Flu Activity Not available.
METAR KHYA 031556Z 05005KT 9SM SCT023 27/21 A2985 RMK AO2 SLP109 T02720206

10-Day Weather Forecast

×

Almanac

Astronomy

Sep. 03, 2015 Rise Set
Actual Time
Civil Twilight
Nautical Twilight
Astronomical Twilight
Moon
Length of Visible Light
Length of Day
Tomorrow will be .
, % of the Moon is Illuminated

Today's Extremes

State Highs State Lows

Community

WunderPhotos

Upload Photos

1,851,988 photos uploaded!

WunderBlogs® & News

Nearby

Air Quality

  Air Quality AQ Index Pollutant
Not available.

Snow Depth

Station Depth Elevation

Earthquake Activity

City Distance Mag. Time & Date
Minimum magnitude displayed is 2.5.

Coastal Water Temperatures

Place Temperature

Stations

Nearby Weather Stations

Station Location Temp. Windchill Dew Point Humidity Wind Precip. Elev Updated Type